SL-16 DEB

Satellite information

Favourite Embed

Satellite Type and Status

DEBRISIN ORBIT

Key statistics

Satellite SL-16 DEB at a glance.

Uptime

11882

Days in orbit

Revolutions

≈ 14.0

Per day

Orbit

LEO

Low Earth Orbit

Inclination

70.7

Latest

Satellite identification and parameters

Extended collection of information and parameters for SL-16 DEB.

Object identification

Identified? True

Debris? True

Object name: SL-16 DEB

International designator: 1992-093KH

Object number (NORAD): 39717

Object ID (CCSDS): 39717

Country: COMMONWEALTH OF INDEPENDENT STATES (CIS)

Current information (Y/N): Y

RCS size: SMALL

Orbital parameters

Period: 102.656 minutes

Inclination: 70.6888 deg

SMA: 7262.427 km

Apoapsis: 955.018 km

Periapsis: 813.567 km

RAAN: 159.1223 deg

Eccentricy: 0.0097385

Argument of periapsis: 98.5044 deg

Mean anomaly: 262.7122 deg

Mean motion: 14.02749275 rev/day

Mean motion (dot): 0.00000409 rev/day2

B* drag term: 0.00028323 1/REarth

Two-line elements (TLE)

Creation date: June 25, 2025, 6:19 p.m.

Reference frame: TEME

Reference center: EARTH

Epoch: June 25, 2025, 5:26 a.m. UTC

TLE line 0: 0 SL-16 DEB

TLE line 1: 1 39717U 92093KH 25176.22701366 .00000409 00000-0 28323-3 0 9992

TLE line 2: 2 39717 70.6888 159.1223 0097385 98.5044 262.7122 14.02749275572390

Live tracking on map

Real-time ground track for satellite SL-16 DEB.

In-orbit conjunctions

A list of the most updated potential collisions computed for object SL-16 DEB.

Target Orbit TCA Probability of collision Miss distance Type
DELTA 1 DEB SSO 2025-05-21 22:38:19 0.0001102051 75.0 (m) DEBRIS
CZ-6A DEB LEO 2025-01-30 22:22:29 0.0001656578 720.0 (m) DEBRIS
DELTA 1 DEB SSO 2024-08-14 13:27:06 0.000308057 75.0 (m) DEBRIS

Associated space launch

Second generation ELING satellite

SL-16 DEB was lifted into orbit during the mission ‘Zenit-2 | Tselina-2 12’, on board a Zenit-2 space rocket.

The launch took place on Dec. 25, 1992, 5:56 a.m. from 45/1.

For more information about the launch, click the button.

Launch to space Zenit-2 | Tselina-2 12
Zenit-2 | Tselina-2 12

Agency: N/A

Status: Launch Successful

Launch date: Dec. 25, 1992, 5:56 a.m. UTC

Rocket: Zenit-2

Launch pad: 45/1

Location: Baikonur Cosmodrome, Republic of Kazakhstan

...

Latest news about this satellite

There are no fresh news available about this satellite. Check back as we update our databases every day.


Newsletter sign-up

Weekly statistics, charts and insights to help you stay on top of the space industry.